GW5578 Weather Reports


time (UTC)temp
F
wind
direction
speed
knots
gust
knots
rain 1hr
in
rain 24hr
in
rain mn
in
humidity
%
barometer
mb
20260510041555 48 0 0.0 2.6 0.00 0.00 0.00 87 1013.8
20260510040057 49 91 0.0 0.9 0.00 0.00 0.00 88 1013.9
20260510034553 49 0 0.0 0.0 0.00 0.00 0.00 87 1013.9
20260510033053 49 0 0.0 0.9 0.00 0.00 0.00 87 1014.1
20260510031555 49 0 0.0 0.9 0.00 0.00 0.00 87 1014.2
20260510030047 49 0 0.0 1.7 0.00 0.00 0.00 87 1014.2
20260510024548 49 0 0.0 0.9 0.00 0.00 0.00 87 1014.1
20260510023049 49 0 0.0 1.7 0.00 0.00 0.00 87 1014.2
20260510021549 49 323 0.0 2.6 0.00 0.00 0.00 87 1014.2
20260510020158 49 0 0.9 2.6 0.00 0.00 0.00 87 1014.1
20260510014559 49 0 0.0 1.7 0.00 0.00 0.00 87 1013.9
20260510013127 49 0 0.0 1.7 0.00 0.00 0.00 87 1014.0
20260510013055 49 0 0.0 1.7 0.00 0.00 0.00 87 1014.0
20260510011546 49 261 0.0 5.2 0.00 0.00 0.00 87 1014.0
20260510010043 49 0 0.0 0.0 0.00 0.00 0.00 87 1013.9
20260510004550 49 0 0.0 1.7 0.00 0.00 0.00 87 1014.1
20260510003049 50 0 0.0 1.7 0.00 0.00 0.00 87 1014.2
20260510001552 50 0 0.0 3.5 0.00 0.00 0.00 87 1014.2
20260510000051 49 229 0.9 2.6 0.00 0.00 0.00 86 1014.3
20260509234550 49 0 0.0 2.6 0.00 0.00 0.00 87 1014.3
20260509233053 50 0 0.0 1.7 0.00 0.00 0.00 87 1014.4
20260509231549 50 0 0.0 2.6 0.00 0.00 0.00 87 1014.8
20260509230052 50 0 0.0 2.6 0.00 0.00 0.00 86 1014.9
20260509224600 50 207 0.0 2.6 0.00 0.00 0.00 86 1014.9
20260509223050 50 0 0.0 1.7 0.00 0.00 0.00 86 1015.0
20260509221603 50 0 0.9 5.2 0.00 0.00 0.00 85 1014.9
20260509220048 51 0 0.0 3.5 0.00 0.00 0.00 84 1014.8
20260509214556 51 0 0.0 7.0 0.00 0.00 0.00 82 1014.9
20260509213053 52 248 2.6 7.0 0.00 0.00 0.00 79 1014.7
20260509211558 52 0 0.9 7.0 0.00 0.00 0.00 78 1014.4
20260509210054 52 0 0.0 3.5 0.00 0.00 0.00 79 1014.3
20260509204556 52 0 0.9 4.3 0.00 0.00 0.00 78 1014.2
20260509203049 52 0 1.7 5.2 0.00 0.00 0.00 79 1014.2
20260509201555 52 256 0.9 4.3 0.00 0.00 0.00 81 1013.9
20260509200059 53 305 0.0 5.2 0.00 0.00 0.00 82 1013.7
20260509194546 53 218 0.9 3.5 0.00 0.00 0.00 82 1013.4
20260509193044 53 215 1.7 4.3 0.00 0.00 0.00 82 1013.1
20260509191549 53 216 1.7 4.3 0.00 0.00 0.00 80 1013.0
20260509190106 54 207 0.9 6.1 0.00 0.00 0.00 78 1013.0
20260509184547 54 242 1.7 6.1 0.00 0.00 0.00 77 1012.9
20260509183048 54 0 0.9 3.5 0.00 0.00 0.00 77 1012.8
20260509181550 54 0 1.7 7.0 0.00 0.00 0.00 76 1012.3
20260509180052 55 299 2.6 7.8 0.00 0.00 0.00 75 1012.2
20260509174547 55 286 1.7 7.0 0.00 0.00 0.00 74 1012.4
20260509173050 56 326 2.6 7.8 0.00 0.00 0.00 72 1012.5
20260509171548 57 328 2.6 8.7 0.00 0.00 0.00 68 1012.6
20260509170047 57 215 5.2 12.2 0.00 0.00 0.00 66 1012.8
20260509164551 57 210 3.5 10.4 0.00 0.00 0.00 65 1012.9
20260509163052 58 264 3.5 10.4 0.00 0.00 0.00 65 1012.9
20260509161557 58 360 2.6 8.7 0.00 0.00 0.00 64 1012.9
20260509160050 58 250 3.5 7.8 0.00 0.00 0.00 64 1012.8
20260509154555 58 200 1.7 4.3 0.00 0.00 0.00 66 1012.6
20260509153057 58 317 0.9 5.2 0.00 0.00 0.00 67 1012.3
20260509151555 58 321 0.9 5.2 0.00 0.00 0.00 66 1012.3
20260509150051 58 290 1.7 7.0 0.00 0.00 0.00 65 1012.6
20260509144558 58 273 1.7 7.0 0.00 0.00 0.00 67 1012.7
20260509143052 57 265 4.3 7.8 0.00 0.00 0.00 66 1013.0
20260509141551 57 307 3.5 8.7 0.00 0.00 0.00 66 1013.2
20260509140100 58 0 1.7 9.6 0.00 0.00 0.00 64 1013.6
20260509134624 58 307 1.7 7.8 0.00 0.00 0.00 66 1013.7
20260509133057 58 274 2.6 8.7 0.00 0.00 0.00 64 1013.5
20260509131554 58 294 3.5 9.6 0.00 0.00 0.00 61 1013.6
20260509130057 58 200 4.3 9.6 0.00 0.00 0.00 60 1013.6
20260509124549 58 208 3.5 10.4 0.00 0.00 0.00 61 1013.8
20260509123051 58 228 2.6 12.2 0.00 0.00 0.00 61 1014.0
20260509121553 59 228 4.3 11.3 0.00 0.00 0.00 58 1014.2
20260509120050 60 329 4.3 9.6 0.00 0.00 0.00 57 1014.1
20260509114552 60 306 1.7 7.8 0.00 0.00 0.00 58 1013.8
20260509113057 60 330 1.7 6.1 0.00 0.00 0.00 60 1013.9
20260509111552 59 268 3.5 7.8 0.00 0.00 0.00 61 1014.5
20260509110057 58 196 3.5 12.2 0.00 0.00 0.00 62 1014.6
20260509104550 58 266 2.6 7.0 0.00 0.00 0.00 62 1014.9
20260509103058 58 273 2.6 9.6 0.00 0.00 0.00 63 1015.0
20260509101551 57 0 2.6 7.8 0.00 0.00 0.00 64 1015.1
20260509100048 57 167 0.0 5.2 0.00 0.00 0.00 65 1014.7
20260509094551 56 258 0.0 1.7 0.00 0.00 0.00 66 1014.7
20260509093046 55 28 0.9 6.1 0.00 0.00 0.00 68 1014.6
20260509091555 54 248 0.0 7.0 0.00 0.00 0.00 69 1014.9
20260509090054 53 317 0.9 3.5 0.00 0.00 0.00 70 1014.9
20260509084554 52 303 1.7 4.3 0.00 0.00 0.00 72 1015.0
20260509083053 52 269 1.7 6.1 0.00 0.00 0.00 72 1015.0
20260509081550 52 262 1.7 3.5 0.00 0.00 0.00 71 1015.0
20260509080052 51 0 0.9 2.6 0.00 0.00 0.00 73 1015.0
20260509074602 50 0 0.0 0.0 0.00 0.00 0.00 76 1015.2
20260509073058 49 0 0.0 0.0 0.00 0.00 0.00 78 1015.1
20260509071604 49 0 0.0 0.9 0.00 0.00 0.00 80 1015.3
20260509070051 48 0 0.0 1.7 0.00 0.00 0.00 81 1015.9
20260509064559 47 0 0.0 0.9 0.00 0.00 0.00 84 1016.2
20260509063050 46 0 0.0 0.9 0.00 0.00 0.00 84 1016.4
20260509061604 46 0 0.0 0.9 0.00 0.00 0.00 84 1016.3
20260509060048 46 0 0.0 0.0 0.00 0.00 0.00 84 1016.2
20260509054556 45 0 0.0 0.0 0.00 0.00 0.00 84 1016.3
20260509053048 45 0 0.0 0.9 0.00 0.00 0.00 83 1016.1
20260509051551 45 0 0.0 3.5 0.00 0.00 0.00 83 1016.2
20260509050044 46 0 0.0 1.7 0.00 0.00 0.00 83 1016.0
20260509044550 46 0 0.0 0.9 0.00 0.00 0.00 83 1016.1
20260509043055 46 68 0.0 0.9 0.00 0.00 0.00 82 1016.1